Time,TemperatureF,DewpointF,PressureIn,WindDirection,WindDirectionDegrees,WindSpeedMPH,WindSpeedGustMPH,Humidity,HourlyPrecipIn,Conditions,Clouds,dailyrainin,SoftwareType,DateUTC
2013-10-12 00:05:00,63.5,63.0,29.88,NW,323,0.0,-999.0,97,-99.99,,,0.00,weatherlink.com 1.10,2013-10-12 04:05:00,
2013-10-12 00:20:00,63.5,63.0,29.87,NW,323,0.0,-999.0,97,-99.99,,,0.00,weatherlink.com 1.10,2013-10-12 04:20:00,
2013-10-12 00:35:00,63.4,63.0,29.87,NW,323,0.0,-999.0,97,-99.99,,,0.00,weatherlink.com 1.10,2013-10-12 04:35:00,
2013-10-12 00:50:00,63.4,63.0,29.87,NW,323,0.0,-999.0,97,-99.99,,,0.00,weatherlink.com 1.10,2013-10-12 04:50:00,
2013-10-12 01:05:00,63.4,63.0,29.87,NW,323,0.0,-999.0,97,-99.99,,,0.00,weatherlink.com 1.10,2013-10-12 05:05:00,
2013-10-12 01:20:00,63.4,63.0,29.87,NW,323,0.0,-999.0,97,-99.99,,,0.00,weatherlink.com 1.10,2013-10-12 05:20:00,
2013-10-12 01:35:00,63.4,63.0,29.87,NW,323,0.0,-999.0,97,-99.99,,,0.00,weatherlink.com 1.10,2013-10-12 05:35:00,
2013-10-12 01:50:00,63.4,63.0,29.87,NW,323,0.0,-999.0,98,-99.99,,,0.00,weatherlink.com 1.10,2013-10-12 05:50:00,
2013-10-12 02:05:00,63.4,63.0,29.87,NW,323,0.0,-999.0,98,-99.99,,,0.00,weatherlink.com 1.10,2013-10-12 06:05:00,
2013-10-12 02:20:00,63.2,62.0,29.87,NW,323,0.0,-999.0,97,-99.99,,,0.00,weatherlink.com 1.10,2013-10-12 06:20:00,
2013-10-12 02:35:00,63.2,63.0,29.87,NW,323,0.0,-999.0,98,-99.99,,,0.00,weatherlink.com 1.10,2013-10-12 06:35:00,
2013-10-12 02:50:00,63.2,63.0,29.86,NW,323,0.0,-999.0,98,-99.99,,,0.00,weatherlink.com 1.10,2013-10-12 06:50:00,
2013-10-12 03:05:00,63.2,63.0,29.86,NW,323,0.0,-999.0,98,-99.99,,,0.00,weatherlink.com 1.10,2013-10-12 07:05:00,
2013-10-12 03:20:00,63.2,63.0,29.86,NW,323,0.0,-999.0,98,-99.99,,,0.00,weatherlink.com 1.10,2013-10-12 07:20:00,
2013-10-12 03:35:00,63.2,63.0,29.86,NW,323,0.0,-999.0,98,-99.99,,,0.00,weatherlink.com 1.10,2013-10-12 07:35:00,
2013-10-12 03:50:00,63.1,63.0,29.86,NW,319,0.0,-999.0,98,-99.99,,,0.00,weatherlink.com 1.10,2013-10-12 07:50:00,
2013-10-12 04:05:00,63.2,63.0,29.86,NW,319,0.0,-999.0,98,-99.99,,,0.00,weatherlink.com 1.10,2013-10-12 08:05:00,
2013-10-12 04:20:00,63.1,63.0,29.86,North,349,0.0,-999.0,98,-99.99,,,0.00,weatherlink.com 1.10,2013-10-12 08:20:00,
2013-10-12 04:35:00,63.1,63.0,29.86,NNW,332,0.0,-999.0,98,-99.99,,,0.00,weatherlink.com 1.10,2013-10-12 08:35:00,
2013-10-12 04:50:00,63.1,62.0,29.87,NW,311,0.0,-999.0,97,-99.99,,,0.00,weatherlink.com 1.10,2013-10-12 08:50:00,
2013-10-12 05:05:00,63.1,62.0,29.87,NW,313,0.0,-999.0,97,-99.99,,,0.00,weatherlink.com 1.10,2013-10-12 09:05:00,
2013-10-12 05:20:00,62.9,62.0,29.88,North,350,0.0,-999.0,97,-99.99,,,0.00,weatherlink.com 1.10,2013-10-12 09:20:00,
2013-10-12 05:35:00,62.9,62.0,29.88,North,353,0.0,-999.0,97,-99.99,,,0.00,weatherlink.com 1.10,2013-10-12 09:35:00,
2013-10-12 05:50:00,62.7,62.0,29.88,North,354,0.0,-999.0,97,-99.99,,,0.00,weatherlink.com 1.10,2013-10-12 09:50:00,
2013-10-12 06:05:00,62.7,62.0,29.88,NNW,347,0.0,-999.0,97,-99.99,,,0.00,weatherlink.com 1.10,2013-10-12 10:05:00,
2013-10-12 06:20:00,62.9,62.0,29.89,North,349,0.0,-999.0,97,-99.99,,,0.00,weatherlink.com 1.10,2013-10-12 10:20:00,
2013-10-12 06:35:00,62.7,62.0,29.89,NNW,337,0.0,-999.0,97,-99.99,,,0.00,weatherlink.com 1.10,2013-10-12 10:35:00,
2013-10-12 06:50:00,62.7,62.0,29.89,North,354,0.0,-999.0,98,-99.99,,,0.00,weatherlink.com 1.10,2013-10-12 10:50:00,
2013-10-12 07:05:00,62.7,62.0,29.90,NW,313,0.0,-999.0,97,-99.99,,,0.00,weatherlink.com 1.10,2013-10-12 11:05:00,
2013-10-12 07:20:00,62.6,62.0,29.91,NNW,342,0.0,-999.0,97,-99.99,,,0.00,weatherlink.com 1.10,2013-10-12 11:20:00,
2013-10-12 07:35:00,62.7,62.0,29.91,NNW,342,0.0,-999.0,98,-99.99,,,0.00,weatherlink.com 1.10,2013-10-12 11:35:00,
2013-10-12 07:50:00,62.9,62.0,29.91,NW,306,0.0,-999.0,98,-99.99,,,0.00,weatherlink.com 1.10,2013-10-12 11:50:00,
2013-10-12 08:05:00,62.9,62.0,29.91,NW,306,0.0,-999.0,97,-99.99,,,0.00,weatherlink.com 1.10,2013-10-12 12:05:00,
2013-10-12 08:20:00,63.1,62.0,29.91,NNW,339,0.0,-999.0,97,-99.99,,,0.00,weatherlink.com 1.10,2013-10-12 12:20:00,
2013-10-12 08:35:00,63.2,62.0,29.91,NNW,343,0.0,-999.0,97,-99.99,,,0.00,weatherlink.com 1.10,2013-10-12 12:35:00,
2013-10-12 08:50:00,63.4,63.0,29.92,NNW,333,0.0,-999.0,97,-99.99,,,0.00,weatherlink.com 1.10,2013-10-12 12:50:00,
2013-10-12 09:05:00,63.5,63.0,29.93,NW,311,0.0,-999.0,97,-99.99,,,0.00,weatherlink.com 1.10,2013-10-12 13:05:00,
2013-10-12 09:20:00,63.4,62.0,29.93,NNW,337,0.0,-999.0,96,-99.99,,,0.00,weatherlink.com 1.10,2013-10-12 13:20:00,
2013-10-12 09:35:00,63.7,63.0,29.93,NW,319,0.0,-999.0,96,-99.99,,,0.00,weatherlink.com 1.10,2013-10-12 13:35:00,
2013-10-12 09:50:00,63.9,63.0,29.93,NW,318,0.0,-999.0,96,-99.99,,,0.00,weatherlink.com 1.10,2013-10-12 13:50:00,
2013-10-12 10:05:00,64.2,63.0,29.93,NNW,340,0.0,-999.0,95,-99.99,,,0.00,weatherlink.com 1.10,2013-10-12 14:05:00,
2013-10-12 10:20:00,64.8,63.0,29.92,NNW,347,0.0,-999.0,94,-99.99,,,0.00,weatherlink.com 1.10,2013-10-12 14:20:00,
2013-10-12 10:35:00,65.8,64.0,29.92,NNW,336,0.0,-999.0,92,-99.99,,,0.00,weatherlink.com 1.10,2013-10-12 14:35:00,
2013-10-12 10:50:00,66.6,63.0,29.91,NNW,342,0.0,-999.0,89,-99.99,,,0.00,weatherlink.com 1.10,2013-10-12 14:50:00,
2013-10-12 11:05:00,66.9,63.0,29.92,WNW,299,0.0,-999.0,88,-99.99,,,0.00,weatherlink.com 1.10,2013-10-12 15:05:00,
2013-10-12 11:20:00,66.3,63.0,29.92,SW,222,0.0,-999.0,90,-99.99,,,0.00,weatherlink.com 1.10,2013-10-12 15:20:00,
2013-10-12 11:35:00,66.4,64.0,29.92,SW,223,0.0,-999.0,90,-99.99,,,0.00,weatherlink.com 1.10,2013-10-12 15:35:00,
2013-10-12 11:50:00,67.1,64.0,29.93,SW,223,0.0,-999.0,89,-99.99,,,0.00,weatherlink.com 1.10,2013-10-12 15:50:00,
2013-10-12 12:05:00,67.6,64.0,29.93,SE,131,0.0,-999.0,88,-99.99,,,0.00,weatherlink.com 1.10,2013-10-12 16:05:00,
2013-10-12 12:20:00,67.9,64.0,29.93,NNE,30,0.0,-999.0,87,-99.99,,,0.00,weatherlink.com 1.10,2013-10-12 16:20:00,
2013-10-12 12:35:00,68.3,64.0,29.93,North,356,0.0,-999.0,86,-99.99,,,0.00,weatherlink.com 1.10,2013-10-12 16:35:00,
2013-10-12 12:50:00,68.3,64.0,29.93,NNW,340,0.0,-999.0,85,-99.99,,,0.00,weatherlink.com 1.10,2013-10-12 16:50:00,
2013-10-12 13:05:00,68.1,64.0,29.93,WNW,282,0.0,-999.0,86,-99.99,,,0.00,weatherlink.com 1.10,2013-10-12 17:05:00,
2013-10-12 13:20:00,67.8,64.0,29.92,WNW,282,0.0,-999.0,87,-99.99,,,0.00,weatherlink.com 1.10,2013-10-12 17:20:00,
2013-10-12 13:35:00,68.1,64.0,29.92,NNW,329,0.0,-999.0,87,-99.99,,,0.00,weatherlink.com 1.10,2013-10-12 17:35:00,
2013-10-12 13:50:00,68.3,64.0,29.92,NNW,336,0.0,-999.0,86,-99.99,,,0.00,weatherlink.com 1.10,2013-10-12 17:50:00,
2013-10-12 14:05:00,68.4,64.0,29.91,NW,326,0.0,-999.0,86,-99.99,,,0.00,weatherlink.com 1.10,2013-10-12 18:05:00,
2013-10-12 14:20:00,68.6,64.0,29.91,NNW,344,0.0,-999.0,86,-99.99,,,0.00,weatherlink.com 1.10,2013-10-12 18:20:00,
2013-10-12 14:35:00,68.8,64.0,29.91,North,0,0.0,-999.0,85,-99.99,,,0.00,weatherlink.com 1.10,2013-10-12 18:35:00,
2013-10-12 14:50:00,69.1,65.0,29.91,NW,311,0.0,-999.0,85,-99.99,,,0.00,weatherlink.com 1.10,2013-10-12 18:50:00,
2013-10-12 15:05:00,68.9,64.0,29.91,North,354,0.0,-999.0,85,-99.99,,,0.00,weatherlink.com 1.10,2013-10-12 19:05:00,
2013-10-12 15:20:00,69.3,65.0,29.91,NNW,337,0.0,-999.0,86,-99.99,,,0.00,weatherlink.com 1.10,2013-10-12 19:20:00,
2013-10-12 15:35:00,69.1,65.0,29.91,NNW,344,0.0,-999.0,85,-99.99,,,0.00,weatherlink.com 1.10,2013-10-12 19:35:00,
2013-10-12 15:50:00,69.3,65.0,29.91,NNW,339,0.0,-999.0,85,-99.99,,,0.00,weatherlink.com 1.10,2013-10-12 19:50:00,
2013-10-12 16:05:00,69.3,65.0,29.91,NW,325,0.0,-999.0,86,-99.99,,,0.00,weatherlink.com 1.10,2013-10-12 20:05:00,
2013-10-12 16:20:00,69.1,65.0,29.91,NNW,337,0.0,-999.0,86,-99.99,,,0.00,weatherlink.com 1.10,2013-10-12 20:20:00,
2013-10-12 16:35:00,69.1,65.0,29.91,North,356,0.0,-999.0,86,-99.99,,,0.00,weatherlink.com 1.10,2013-10-12 20:35:00,
2013-10-12 16:50:00,69.1,65.0,29.91,North,352,0.0,-999.0,86,-99.99,,,0.00,weatherlink.com 1.10,2013-10-12 20:50:00,
2013-10-12 17:05:00,68.9,65.0,29.91,North,0,0.0,-999.0,87,-99.99,,,0.00,weatherlink.com 1.10,2013-10-12 21:05:00,
2013-10-12 17:20:00,68.8,65.0,29.92,North,0,0.0,-999.0,87,-99.99,,,0.00,weatherlink.com 1.10,2013-10-12 21:20:00,
2013-10-12 17:35:00,68.8,65.0,29.92,NNW,347,0.0,-999.0,88,-99.99,,,0.00,weatherlink.com 1.10,2013-10-12 21:35:00,
2013-10-12 17:50:00,68.6,65.0,29.93,NNW,346,0.0,-999.0,88,-99.99,,,0.00,weatherlink.com 1.10,2013-10-12 21:50:00,
2013-10-12 18:05:00,68.4,65.0,29.93,NNW,339,0.0,-999.0,88,-99.99,,,0.00,weatherlink.com 1.10,2013-10-12 22:05:00,
2013-10-12 18:20:00,68.3,65.0,29.94,NNW,346,0.0,-999.0,89,-99.99,,,0.00,weatherlink.com 1.10,2013-10-12 22:20:00,
2013-10-12 18:35:00,68.1,65.0,29.94,North,0,0.0,-999.0,89,-99.99,,,0.00,weatherlink.com 1.10,2013-10-12 22:35:00,
2013-10-12 18:50:00,67.9,65.0,29.94,North,357,0.0,-999.0,90,-99.99,,,0.00,weatherlink.com 1.10,2013-10-12 22:50:00,
2013-10-12 19:05:00,67.6,65.0,29.94,North,357,0.0,-999.0,91,-99.99,,,0.00,weatherlink.com 1.10,2013-10-12 23:05:00,
2013-10-12 19:20:00,67.6,65.0,29.94,North,357,0.0,-999.0,91,-99.99,,,0.00,weatherlink.com 1.10,2013-10-12 23:20:00,
2013-10-12 19:35:00,67.4,65.0,29.95,North,359,0.0,-999.0,92,-99.99,,,0.00,weatherlink.com 1.10,2013-10-12 23:35:00,
2013-10-12 19:50:00,67.3,65.0,29.95,North,352,0.0,-999.0,92,-99.99,,,0.00,weatherlink.com 1.10,2013-10-12 23:50:00,
2013-10-12 20:05:00,66.9,65.0,29.95,North,352,0.0,-999.0,92,-99.99,,,0.00,weatherlink.com 1.10,2013-10-13 00:05:00,
2013-10-12 20:20:00,66.9,65.0,29.95,North,352,0.0,-999.0,93,-99.99,,,0.00,weatherlink.com 1.10,2013-10-13 00:20:00,
2013-10-12 20:35:00,66.9,65.0,29.95,NNW,342,0.0,-999.0,93,-99.99,,,0.00,weatherlink.com 1.10,2013-10-13 00:35:00,
2013-10-12 20:50:00,66.9,65.0,29.95,NNW,342,0.0,-999.0,94,-99.99,,,0.00,weatherlink.com 1.10,2013-10-13 00:50:00,
2013-10-12 21:05:00,67.1,65.0,29.95,NNW,342,0.0,-999.0,94,-99.99,,,0.00,weatherlink.com 1.10,2013-10-13 01:05:00,
2013-10-12 21:20:00,66.9,65.0,29.95,NNW,340,0.0,-999.0,94,-99.99,,,0.00,weatherlink.com 1.10,2013-10-13 01:20:00,
2013-10-12 21:35:00,66.9,65.0,29.95,NNW,337,0.0,-999.0,94,-99.99,,,0.00,weatherlink.com 1.10,2013-10-13 01:35:00,
2013-10-12 21:50:00,66.9,65.0,29.95,North,357,0.0,-999.0,94,-99.99,,,0.00,weatherlink.com 1.10,2013-10-13 01:50:00,
2013-10-12 22:05:00,66.8,65.0,29.96,North,352,0.0,-999.0,95,-99.99,,,0.00,weatherlink.com 1.10,2013-10-13 02:05:00,
2013-10-12 22:20:00,66.9,66.0,29.96,North,352,0.0,-999.0,95,-99.99,,,0.00,weatherlink.com 1.10,2013-10-13 02:20:00,
2013-10-12 22:35:00,66.9,66.0,29.96,North,352,0.0,-999.0,95,-99.99,,,0.00,weatherlink.com 1.10,2013-10-13 02:35:00,
2013-10-12 22:50:00,66.9,66.0,29.97,North,352,0.0,-999.0,95,-99.99,,,0.00,weatherlink.com 1.10,2013-10-13 02:50:00,
2013-10-12 23:05:00,66.9,66.0,29.96,North,352,0.0,-999.0,95,-99.99,,,0.00,weatherlink.com 1.10,2013-10-13 03:05:00,
2013-10-12 23:20:00,67.1,66.0,29.97,North,0,0.0,-999.0,95,-99.99,,,0.00,weatherlink.com 1.10,2013-10-13 03:20:00,
2013-10-12 23:35:00,66.9,66.0,29.96,NNW,347,0.0,-999.0,96,-99.99,,,0.00,weatherlink.com 1.10,2013-10-13 03:35:00,
2013-10-12 23:50:00,67.1,66.0,29.96,North,357,0.0,-999.0,96,-99.99,,,0.00,weatherlink.com 1.10,2013-10-13 03:50:00,